Time,TemperatureF,DewpointF,PressureIn,WindDirection,WindDirectionDegrees,WindSpeedMPH,WindSpeedGustMPH,Humidity,HourlyPrecipIn,Conditions,Clouds,dailyrainin,SolarRadiationWatts/m^2,SoftwareType,DateUTC
2013-07-01 00:02:00,67.0,46.0,-100.00,ESE,108,4.0,17.0,46,0.00,,,0.00,0.000000,,2013-07-01 06:02:00,
2013-07-01 00:12:00,67.0,46.0,-100.00,ESE,108,4.0,17.0,46,0.00,,,0.00,0.000000,,2013-07-01 06:12:00,
2013-07-01 00:24:00,67.0,46.0,-100.00,ESE,108,4.0,17.0,46,0.00,,,0.00,0.000000,,2013-07-01 06:24:00,
2013-07-01 00:30:00,65.0,44.0,-100.00,East,94,4.0,9.0,47,0.00,,,0.00,0.000000,,2013-07-01 06:30:00,
2013-07-01 00:53:00,65.0,44.0,-100.00,East,94,4.0,9.0,47,0.00,,,0.00,0.000000,,2013-07-01 06:53:00,
2013-07-01 01:01:00,65.0,44.0,-100.00,East,94,4.0,9.0,47,0.00,,,0.00,0.000000,,2013-07-01 07:01:00,
2013-07-01 01:11:00,65.0,44.0,-100.00,East,94,4.0,9.0,47,0.00,,,0.00,0.000000,,2013-07-01 07:11:00,
2013-07-01 01:22:00,65.0,44.0,-100.00,East,94,4.0,9.0,47,0.00,,,0.00,0.000000,,2013-07-01 07:22:00,
2013-07-01 01:30:00,63.0,43.0,-100.00,ESE,113,4.0,11.0,48,0.00,,,0.00,0.000000,,2013-07-01 07:30:00,
2013-07-01 02:01:00,63.0,43.0,-100.00,ESE,113,4.0,11.0,48,0.00,,,0.00,0.000000,,2013-07-01 08:01:00,
2013-07-01 02:11:00,63.0,43.0,-100.00,ESE,113,4.0,11.0,48,0.00,,,0.00,0.000000,,2013-07-01 08:11:00,
2013-07-01 02:22:00,63.0,43.0,-100.00,ESE,113,4.0,11.0,48,0.00,,,0.00,0.000000,,2013-07-01 08:22:00,
2013-07-01 02:30:00,62.0,43.0,-100.00,East,80,5.0,11.0,50,0.00,,,0.00,0.000000,,2013-07-01 08:30:00,
2013-07-01 02:52:00,62.0,43.0,-100.00,East,80,5.0,11.0,50,0.00,,,0.00,0.000000,,2013-07-01 08:52:00,
2013-07-01 03:02:00,62.0,43.0,-100.00,East,80,5.0,11.0,50,0.00,,,0.00,0.000000,,2013-07-01 09:02:00,
2013-07-01 03:11:00,62.0,43.0,-100.00,East,80,5.0,11.0,50,0.00,,,0.00,0.000000,,2013-07-01 09:11:00,
2013-07-01 03:22:00,62.0,43.0,-100.00,East,80,5.0,11.0,50,0.00,,,0.00,0.000000,,2013-07-01 09:22:00,
2013-07-01 03:30:00,62.0,43.0,-100.00,East,88,4.0,10.0,50,0.00,,,0.00,0.000000,,2013-07-01 09:30:00,
2013-07-01 03:53:00,62.0,43.0,-100.00,East,88,4.0,10.0,50,0.00,,,0.00,0.000000,,2013-07-01 09:53:00,
2013-07-01 04:03:00,62.0,43.0,-100.00,East,88,4.0,10.0,50,0.00,,,0.00,0.000000,,2013-07-01 10:03:00,
2013-07-01 04:11:00,62.0,43.0,-100.00,East,88,4.0,10.0,50,0.00,,,0.00,0.000000,,2013-07-01 10:11:00,
2013-07-01 04:22:00,62.0,43.0,-100.00,East,88,4.0,10.0,50,0.00,,,0.00,0.000000,,2013-07-01 10:22:00,
2013-07-01 04:30:00,61.0,43.0,-100.00,ESE,102,2.0,9.0,51,0.00,,,0.00,0.000000,,2013-07-01 10:30:00,
2013-07-01 04:52:00,61.0,43.0,-100.00,ESE,102,2.0,9.0,51,0.00,,,0.00,0.000000,,2013-07-01 10:52:00,
2013-07-01 05:02:00,61.0,43.0,-100.00,ESE,102,2.0,9.0,51,0.00,,,0.00,0.000000,,2013-07-01 11:02:00,
2013-07-01 05:11:00,61.0,43.0,-100.00,ESE,102,2.0,9.0,51,0.00,,,0.00,0.000000,,2013-07-01 11:11:00,
2013-07-01 05:22:00,61.0,43.0,-100.00,ESE,102,2.0,9.0,51,0.00,,,0.00,0.000000,,2013-07-01 11:22:00,
2013-07-01 05:30:00,59.0,43.0,-100.00,NNE,13,2.0,6.0,55,0.00,,,0.00,0.000000,,2013-07-01 11:30:00,
2013-07-01 05:52:00,59.0,43.0,-100.00,NNE,13,2.0,6.0,55,0.00,,,0.00,0.000000,,2013-07-01 11:52:00,
2013-07-01 06:01:00,59.0,43.0,-100.00,NNE,13,2.0,6.0,55,0.00,,,0.00,0.000000,,2013-07-01 12:01:00,
2013-07-01 06:11:00,59.0,43.0,-100.00,NNE,13,2.0,6.0,55,0.00,,,0.00,0.000000,,2013-07-01 12:11:00,
2013-07-01 06:22:00,59.0,43.0,-100.00,NNE,13,2.0,6.0,55,0.00,,,0.00,0.000000,,2013-07-01 12:22:00,
2013-07-01 06:30:00,60.0,44.0,-100.00,NNE,16,2.0,5.0,55,0.00,,,0.00,7.000000,,2013-07-01 12:30:00,
2013-07-01 06:53:00,60.0,44.0,-100.00,NNE,16,2.0,5.0,55,0.00,,,0.00,7.000000,,2013-07-01 12:53:00,
2013-07-01 07:02:00,60.0,44.0,-100.00,NNE,16,2.0,5.0,55,0.00,,,0.00,7.000000,,2013-07-01 13:02:00,
2013-07-01 07:12:00,60.0,44.0,-100.00,NNE,16,2.0,5.0,55,0.00,,,0.00,7.000000,,2013-07-01 13:12:00,
2013-07-01 07:23:00,60.0,44.0,-100.00,NNE,16,2.0,5.0,55,0.00,,,0.00,7.000000,,2013-07-01 13:23:00,
2013-07-01 07:30:00,67.0,44.0,-100.00,ENE,77,3.0,5.0,43,0.00,,,0.00,104.000000,,2013-07-01 13:30:00,
2013-07-01 08:11:00,67.0,44.0,-100.00,ENE,77,3.0,5.0,43,0.00,,,0.00,104.000000,,2013-07-01 14:11:00,
2013-07-01 08:22:00,67.0,44.0,-100.00,ENE,77,3.0,5.0,43,0.00,,,0.00,104.000000,,2013-07-01 14:22:00,
2013-07-01 08:30:00,71.0,45.0,-100.00,SE,138,4.0,9.0,39,0.00,,,0.00,400.000000,,2013-07-01 14:30:00,
2013-07-01 09:02:00,71.0,45.0,-100.00,SE,138,4.0,9.0,39,0.00,,,0.00,400.000000,,2013-07-01 15:02:00,
2013-07-01 09:11:00,71.0,45.0,-100.00,SE,138,4.0,9.0,39,0.00,,,0.00,400.000000,,2013-07-01 15:11:00,
2013-07-01 09:23:00,71.0,45.0,-100.00,SE,138,4.0,9.0,39,0.00,,,0.00,400.000000,,2013-07-01 15:23:00,
2013-07-01 09:30:00,74.0,45.0,-100.00,SE,126,4.0,10.0,36,0.00,,,-99.99,626.000000,,2013-07-01 15:30:00,
2013-07-01 09:53:00,74.0,45.0,-100.00,SE,126,4.0,10.0,36,0.00,,,-99.99,626.000000,,2013-07-01 15:53:00,
2013-07-01 10:01:00,74.0,45.0,-100.00,SE,126,4.0,10.0,36,0.00,,,-99.99,626.000000,,2013-07-01 16:01:00,
2013-07-01 10:11:00,74.0,45.0,-100.00,SE,126,4.0,10.0,36,0.00,,,-99.99,626.000000,,2013-07-01 16:11:00,
2013-07-01 10:22:00,74.0,45.0,-100.00,SE,126,4.0,10.0,36,0.00,,,-99.99,626.000000,,2013-07-01 16:22:00,
2013-07-01 10:30:00,77.0,45.0,-100.00,ENE,58,4.0,9.0,32,0.00,,,0.00,826.000000,,2013-07-01 16:30:00,
2013-07-01 10:53:00,77.0,45.0,-100.00,ENE,58,4.0,9.0,32,0.00,,,0.00,826.000000,,2013-07-01 16:53:00,
2013-07-01 11:02:00,77.0,45.0,-100.00,ENE,58,4.0,9.0,32,0.00,,,0.00,826.000000,,2013-07-01 17:02:00,
2013-07-01 11:12:00,77.0,45.0,-100.00,ENE,58,4.0,9.0,32,0.00,,,0.00,826.000000,,2013-07-01 17:12:00,
2013-07-01 11:23:00,77.0,45.0,-100.00,ENE,58,4.0,9.0,32,0.00,,,0.00,826.000000,,2013-07-01 17:23:00,
2013-07-01 11:30:00,80.0,44.0,-100.00,WSW,248,3.0,8.0,28,0.00,,,0.00,985.000000,,2013-07-01 17:30:00,
2013-07-01 11:53:00,80.0,44.0,-100.00,WSW,248,3.0,8.0,28,0.00,,,0.00,985.000000,,2013-07-01 17:53:00,
2013-07-01 12:02:00,80.0,44.0,-100.00,WSW,248,3.0,8.0,28,0.00,,,0.00,985.000000,,2013-07-01 18:02:00,
2013-07-01 12:11:00,80.0,44.0,-100.00,WSW,248,3.0,8.0,28,0.00,,,0.00,985.000000,,2013-07-01 18:11:00,
2013-07-01 12:22:00,80.0,44.0,-100.00,WSW,248,3.0,8.0,28,0.00,,,0.00,985.000000,,2013-07-01 18:22:00,
2013-07-01 12:30:00,83.0,45.0,-100.00,SSE,155,4.0,10.0,26,0.00,,,0.00,1085.000000,,2013-07-01 18:30:00,
2013-07-01 12:53:00,83.0,45.0,-100.00,SSE,155,4.0,10.0,26,0.00,,,0.00,1085.000000,,2013-07-01 18:53:00,
2013-07-01 13:02:00,83.0,45.0,-100.00,SSE,155,4.0,10.0,26,0.00,,,0.00,1085.000000,,2013-07-01 19:02:00,
2013-07-01 13:11:00,83.0,45.0,-100.00,SSE,155,4.0,10.0,26,0.00,,,0.00,1085.000000,,2013-07-01 19:11:00,
2013-07-01 13:22:00,83.0,45.0,-100.00,SSE,155,4.0,10.0,26,0.00,,,0.00,1085.000000,,2013-07-01 19:22:00,
2013-07-01 13:30:00,87.0,40.0,-100.00,NNW,338,8.0,16.0,19,0.00,,,0.00,1153.000000,,2013-07-01 19:30:00,
2013-07-01 14:02:00,87.0,40.0,-100.00,NNW,338,8.0,16.0,19,0.00,,,0.00,1153.000000,,2013-07-01 20:02:00,
2013-07-01 14:11:00,87.0,40.0,-100.00,NNW,338,8.0,16.0,19,0.00,,,0.00,1153.000000,,2013-07-01 20:11:00,
2013-07-01 14:22:00,87.0,40.0,-100.00,NNW,338,8.0,16.0,19,0.00,,,0.00,1153.000000,,2013-07-01 20:22:00,
2013-07-01 14:30:00,88.0,41.0,-100.00,NNW,332,7.0,17.0,19,0.00,,,0.00,1101.000000,,2013-07-01 20:30:00,
2013-07-01 14:52:00,88.0,41.0,-100.00,NNW,332,7.0,17.0,19,0.00,,,0.00,1101.000000,,2013-07-01 20:52:00,
2013-07-01 15:01:00,88.0,41.0,-100.00,NNW,332,7.0,17.0,19,0.00,,,0.00,1101.000000,,2013-07-01 21:01:00,
2013-07-01 15:11:00,88.0,41.0,-100.00,NNW,332,7.0,17.0,19,0.00,,,0.00,1101.000000,,2013-07-01 21:11:00,
2013-07-01 15:24:00,88.0,41.0,-100.00,NNW,332,7.0,17.0,19,0.00,,,0.00,1101.000000,,2013-07-01 21:24:00,
2013-07-01 15:30:00,86.0,39.0,-100.00,West,281,4.0,20.0,19,0.00,,,0.00,677.000000,,2013-07-01 21:30:00,
2013-07-01 16:01:00,86.0,39.0,-100.00,West,281,4.0,20.0,19,0.00,,,0.00,677.000000,,2013-07-01 22:01:00,
2013-07-01 16:11:00,86.0,39.0,-100.00,West,281,4.0,20.0,19,0.00,,,0.00,677.000000,,2013-07-01 22:11:00,
2013-07-01 16:23:00,86.0,39.0,-100.00,West,281,4.0,20.0,19,0.00,,,0.00,677.000000,,2013-07-01 22:23:00,
2013-07-01 16:30:00,89.0,34.0,-100.00,NNW,335,9.0,17.0,14,0.00,,,0.00,862.000000,,2013-07-01 22:30:00,
2013-07-01 16:53:00,89.0,34.0,-100.00,NNW,335,9.0,17.0,14,0.00,,,0.00,862.000000,,2013-07-01 22:53:00,
2013-07-01 17:01:00,89.0,34.0,-100.00,NNW,335,9.0,17.0,14,0.00,,,0.00,862.000000,,2013-07-01 23:01:00,
2013-07-01 17:11:00,89.0,34.0,-100.00,NNW,335,9.0,17.0,14,0.00,,,0.00,862.000000,,2013-07-01 23:11:00,
2013-07-01 17:22:00,89.0,34.0,-100.00,NNW,335,9.0,17.0,14,0.00,,,0.00,862.000000,,2013-07-01 23:22:00,
2013-07-01 17:30:00,89.0,32.0,-100.00,North,357,9.0,18.0,13,0.00,,,0.00,731.000000,,2013-07-01 23:30:00,
2013-07-01 17:53:00,89.0,32.0,-100.00,North,357,9.0,18.0,13,0.00,,,0.00,731.000000,,2013-07-01 23:53:00,
2013-07-01 18:01:00,89.0,32.0,-100.00,North,357,9.0,18.0,13,0.00,,,0.00,731.000000,,2013-07-02 00:01:00,
2013-07-01 18:12:00,89.0,32.0,-100.00,North,357,9.0,18.0,13,0.00,,,0.00,731.000000,,2013-07-02 00:12:00,
2013-07-01 18:22:00,89.0,32.0,-100.00,North,357,9.0,18.0,13,0.00,,,0.00,731.000000,,2013-07-02 00:22:00,
2013-07-01 18:30:00,89.0,30.0,-100.00,NNW,329,8.0,24.0,12,0.00,,,0.00,509.000000,,2013-07-02 00:30:00,
2013-07-01 18:53:00,89.0,30.0,-100.00,NNW,329,8.0,24.0,12,0.00,,,0.00,509.000000,,2013-07-02 00:53:00,
2013-07-01 19:01:00,89.0,30.0,-100.00,NNW,329,8.0,24.0,12,0.00,,,0.00,509.000000,,2013-07-02 01:01:00,
2013-07-01 19:11:00,89.0,30.0,-100.00,NNW,329,8.0,24.0,12,0.00,,,0.00,509.000000,,2013-07-02 01:11:00,
2013-07-01 19:22:00,89.0,30.0,-100.00,NNW,329,8.0,24.0,12,0.00,,,0.00,509.000000,,2013-07-02 01:22:00,
2013-07-01 19:30:00,85.0,30.0,-100.00,NNW,342,7.0,22.0,14,0.00,,,0.00,105.000000,,2013-07-02 01:30:00,
2013-07-01 19:53:00,85.0,30.0,-100.00,NNW,342,7.0,22.0,14,0.00,,,0.00,105.000000,,2013-07-02 01:53:00,
2013-07-01 20:02:00,85.0,30.0,-100.00,NNW,342,7.0,22.0,14,0.00,,,0.00,105.000000,,2013-07-02 02:02:00,
2013-07-01 20:11:00,85.0,30.0,-100.00,NNW,342,7.0,22.0,14,0.00,,,0.00,105.000000,,2013-07-02 02:11:00,
2013-07-01 20:22:00,85.0,30.0,-100.00,NNW,342,7.0,22.0,14,0.00,,,0.00,105.000000,,2013-07-02 02:22:00,
2013-07-01 20:30:00,81.0,29.0,-100.00,North,353,6.0,18.0,15,0.00,,,0.00,20.000000,,2013-07-02 02:30:00,
2013-07-01 20:53:00,81.0,29.0,-100.00,North,353,6.0,18.0,15,0.00,,,0.00,20.000000,,2013-07-02 02:53:00,
2013-07-01 21:01:00,81.0,29.0,-100.00,North,353,6.0,18.0,15,0.00,,,0.00,20.000000,,2013-07-02 03:01:00,
2013-07-01 21:12:00,81.0,29.0,-100.00,North,353,6.0,18.0,15,0.00,,,0.00,20.000000,,2013-07-02 03:12:00,
2013-07-01 21:24:00,81.0,29.0,-100.00,North,353,6.0,18.0,15,0.00,,,0.00,20.000000,,2013-07-02 03:24:00,
2013-07-01 21:30:00,79.0,32.0,-100.00,North,8,7.0,15.0,18,0.00,,,0.00,1.000000,,2013-07-02 03:30:00,
2013-07-01 22:02:00,79.0,32.0,-100.00,North,8,7.0,15.0,18,0.00,,,0.00,1.000000,,2013-07-02 04:02:00,
2013-07-01 22:11:00,79.0,32.0,-100.00,North,8,7.0,15.0,18,0.00,,,0.00,1.000000,,2013-07-02 04:11:00,
2013-07-01 22:22:00,79.0,32.0,-100.00,North,8,7.0,15.0,18,0.00,,,0.00,1.000000,,2013-07-02 04:22:00,
2013-07-01 22:30:00,74.0,40.0,-100.00,East,84,7.0,12.0,29,0.00,,,0.00,0.000000,,2013-07-02 04:30:00,
2013-07-01 22:53:00,74.0,40.0,-100.00,East,84,7.0,12.0,29,0.00,,,0.00,0.000000,,2013-07-02 04:53:00,
2013-07-01 23:01:00,74.0,40.0,-100.00,East,84,7.0,12.0,29,0.00,,,0.00,0.000000,,2013-07-02 05:01:00,
2013-07-01 23:11:00,74.0,40.0,-100.00,East,84,7.0,12.0,29,0.00,,,0.00,0.000000,,2013-07-02 05:11:00,
2013-07-01 23:22:00,74.0,40.0,-100.00,East,84,7.0,12.0,29,0.00,,,0.00,0.000000,,2013-07-02 05:22:00,
2013-07-01 23:30:00,71.0,40.0,-100.00,East,84,4.0,12.0,32,0.00,,,0.00,0.000000,,2013-07-02 05:30:00,
2013-07-01 23:53:00,71.0,40.0,-100.00,East,84,4.0,12.0,32,0.00,,,0.00,0.000000,,2013-07-02 05:53:00,